{"data":{"norad_id":53453,"intl_designator":"2022-098K","name":"DONGPO 01","alt_names":[],"object_type":"PAYLOAD","status":"ACTIVE","operator":null,"country":"PRC","launch_date":"2022-08-10","launch_site_code":"TAISC","launch_vehicle":null,"mission":null,"orbit_class":"UNKNOWN","rcs_meters":null,"size_class":null,"mass_kg":null,"dimensions":null,"purposes":[],"wikipedia_slug":null,"has_3d_model":false,"image_url":null,"decayed_at":null,"tle_current":{"epoch":"2026-05-25T03:57:42.371136Z","epoch_age_seconds":57844,"freshness":"FRESH","line1":"1 53453U 22098K   26145.16507374  .00072760  00000+0  64748-3 0  9995","line2":"2 53453  97.5553 275.0246 0000656 176.0060 184.1206 15.68269925211143","mean_motion":15.68269925,"eccentricity":6.56e-5,"inclination_deg":97.5553,"raan_deg":275.0246,"arg_perigee_deg":176.006,"mean_anomaly_deg":184.1206,"bstar":0.00064748,"rev_number":21114,"period_min":91.820928084175,"perigee_km":363.40857251861,"apogee_km":364.29312132413,"semimajor_km":6741.9878469214,"source":"CELESTRAK","updated_at":"2026-05-25T13:37:58.193448Z"}}}